Terminal Aerodrome Forecast
Issued by NWS

Home | Current Version | Previous Version | Text Only | Print | Product List | Glossary On
Versions: 1 2 3 4 5 6 7 8 9 10 11 12 13 14 15 16 17 18 19 20
000
FTUS46 KSGX 220100 AAA
TAFCRQ
TAF AMD
KCRQ 220121Z 2201/2224 VRB04KT P6SM FEW012
      TEMPO 2201/2203 BKN012
     FM220700 VRB04KT 6SM HZ BKN009
     FM221100 VRB04KT 3SM BR BKN005
     FM221400 VRB04KT P6SM SKC
     FM221900 27007KT P6SM SKC=

USA.gov is the U.S. government's official web portal to all federal, state and local government web resources and services.